Time,TemperatureF,DewpointF,PressureIn,WindDirection,WindDirectionDegrees,WindSpeedMPH,WindSpeedGustMPH,Humidity,HourlyPrecipIn,Conditions,Clouds,dailyrainin,SoftwareType,DateUTC
2013-10-13 00:00:00,65.6,63.2,30.01,NNW,344,2.0,2.0,92,0.00,,,0.01,Wunderground v.1.15,2013-10-13 04:00:00,
2013-10-13 00:05:00,65.7,63.3,30.02,North,356,2.0,2.0,92,0.00,,,0.00,Wunderground v.1.15,2013-10-13 04:05:00,
2013-10-13 00:10:00,65.7,63.3,30.02,NNW,339,2.0,2.0,92,0.00,,,0.00,Wunderground v.1.15,2013-10-13 04:10:00,
2013-10-13 00:20:00,65.7,63.3,30.01,North,352,1.0,1.0,92,0.00,,,0.00,Wunderground v.1.15,2013-10-13 04:20:00,
2013-10-13 00:30:00,65.8,63.4,30.01,North,8,1.0,1.0,92,0.00,,,0.00,Wunderground v.1.15,2013-10-13 04:30:00,
2013-10-13 00:40:00,65.8,63.4,30.01,NNW,335,0.0,0.0,92,0.00,,,0.00,Wunderground v.1.15,2013-10-13 04:40:00,
2013-10-13 00:45:00,65.8,63.4,30.01,NNW,342,0.0,1.0,92,0.00,,,0.00,Wunderground v.1.15,2013-10-13 04:45:00,
2013-10-13 00:50:00,65.8,63.4,30.01,NNW,341,0.0,0.0,92,0.00,,,0.00,Wunderground v.1.15,2013-10-13 04:50:00,
2013-10-13 00:55:00,65.8,63.4,30.01,NNE,12,0.0,0.0,92,0.00,,,0.00,Wunderground v.1.15,2013-10-13 04:55:00,
2013-10-13 01:00:00,65.8,63.4,30.01,North,6,0.0,0.0,92,0.00,,,0.00,Wunderground v.1.15,2013-10-13 05:00:00,
2013-10-13 01:10:00,65.8,63.4,30.01,NNW,342,0.0,0.0,92,0.00,,,0.00,Wunderground v.1.15,2013-10-13 05:10:00,
2013-10-13 01:15:00,65.8,63.4,30.01,North,352,0.0,0.0,92,0.00,,,0.00,Wunderground v.1.15,2013-10-13 05:15:00,
2013-10-13 01:20:00,65.8,63.4,30.01,North,352,0.0,0.0,92,0.00,,,0.00,Wunderground v.1.15,2013-10-13 05:20:00,
2013-10-13 01:25:00,65.8,63.4,30.01,North,352,0.0,0.0,92,0.00,,,0.00,Wunderground v.1.15,2013-10-13 05:25:00,
2013-10-13 01:30:00,65.8,63.4,30.01,North,353,0.0,0.0,92,0.00,,,0.00,Wunderground v.1.15,2013-10-13 05:30:00,
2013-10-13 01:35:00,65.8,63.4,30.01,North,352,0.0,0.0,92,0.00,,,0.00,Wunderground v.1.15,2013-10-13 05:35:00,
2013-10-13 01:45:00,65.8,63.4,30.01,NW,315,0.0,0.0,92,0.00,,,0.00,Wunderground v.1.15,2013-10-13 05:45:00,
2013-10-13 01:50:00,65.8,63.4,30.02,NW,316,0.0,0.0,92,0.00,,,0.00,Wunderground v.1.15,2013-10-13 05:50:00,
2013-10-13 01:55:00,65.8,63.4,30.02,NNW,330,0.0,1.0,92,0.00,,,0.00,Wunderground v.1.15,2013-10-13 05:55:00,
2013-10-13 02:00:00,65.8,63.4,30.02,NW,326,1.0,1.0,92,0.00,,,0.00,Wunderground v.1.15,2013-10-13 06:00:00,
2013-10-13 02:10:00,65.8,63.4,30.02,NW,308,0.0,0.0,92,0.00,,,0.00,Wunderground v.1.15,2013-10-13 06:10:00,
2013-10-13 02:15:00,65.8,63.4,30.01,North,6,0.0,0.0,92,0.00,,,0.00,Wunderground v.1.15,2013-10-13 06:15:00,
2013-10-13 02:25:00,65.9,63.5,30.01,North,353,1.0,1.0,92,0.00,,,0.00,Wunderground v.1.15,2013-10-13 06:25:00,
2013-10-13 02:30:00,65.9,63.5,30.01,North,5,1.0,1.0,92,0.00,,,0.00,Wunderground v.1.15,2013-10-13 06:30:00,
2013-10-13 02:35:00,65.9,63.5,30.01,North,356,1.0,3.0,92,0.00,,,0.00,Wunderground v.1.15,2013-10-13 06:35:00,
2013-10-13 02:45:00,65.9,63.5,30.01,NNW,331,1.0,2.0,92,0.00,,,0.00,Wunderground v.1.15,2013-10-13 06:45:00,
2013-10-13 02:50:00,65.9,63.5,30.01,NNW,340,1.0,1.0,92,0.00,,,0.00,Wunderground v.1.15,2013-10-13 06:50:00,
2013-10-13 02:55:00,65.9,63.5,30.01,North,352,1.0,1.0,92,0.00,,,0.00,Wunderground v.1.15,2013-10-13 06:55:00,
2013-10-13 03:00:00,65.9,63.5,30.01,North,1,1.0,1.0,92,0.00,,,0.00,Wunderground v.1.15,2013-10-13 07:00:00,
2013-10-13 03:10:00,65.9,63.5,30.00,NNE,23,1.0,1.0,92,0.00,,,0.00,Wunderground v.1.15,2013-10-13 07:10:00,
2013-10-13 03:15:00,65.9,63.8,30.00,NNE,23,0.0,1.0,93,0.00,,,0.00,Wunderground v.1.15,2013-10-13 07:15:00,
2013-10-13 03:20:00,65.8,63.7,30.00,NNW,338,0.0,2.0,93,0.00,,,0.00,Wunderground v.1.15,2013-10-13 07:20:00,
2013-10-13 03:25:00,65.8,63.7,30.00,North,1,1.0,2.0,93,0.00,,,0.00,Wunderground v.1.15,2013-10-13 07:25:00,
2013-10-13 03:30:00,65.8,63.7,30.00,NNW,330,2.0,2.0,93,0.00,,,0.00,Wunderground v.1.15,2013-10-13 07:30:00,
2013-10-13 03:35:00,65.8,63.7,30.00,NNE,23,2.0,2.0,93,0.00,,,0.00,Wunderground v.1.15,2013-10-13 07:35:00,
2013-10-13 03:40:00,65.8,63.7,30.00,NNE,19,1.0,1.0,93,0.00,,,0.00,Wunderground v.1.15,2013-10-13 07:40:00,
2013-10-13 03:50:00,65.8,63.7,30.00,NE,36,3.0,4.0,93,0.00,,,0.00,Wunderground v.1.15,2013-10-13 07:50:00,
2013-10-13 03:55:00,65.9,63.8,30.00,NNE,19,4.0,4.0,93,0.00,,,0.00,Wunderground v.1.15,2013-10-13 07:55:00,
2013-10-13 04:00:00,65.9,63.8,30.00,North,11,3.0,3.0,93,0.00,,,0.00,Wunderground v.1.15,2013-10-13 08:00:00,
2013-10-13 04:10:00,66.0,63.9,30.01,NNE,13,2.0,4.0,93,0.00,,,0.00,Wunderground v.1.15,2013-10-13 08:10:00,
2013-10-13 04:15:00,66.0,63.9,30.00,North,9,3.0,4.0,93,0.00,,,0.00,Wunderground v.1.15,2013-10-13 08:15:00,
2013-10-13 04:25:00,66.0,63.9,30.00,NNE,19,3.0,4.0,93,0.00,,,0.00,Wunderground v.1.15,2013-10-13 08:25:00,
2013-10-13 04:30:00,66.0,63.9,30.01,NNW,346,3.0,4.0,93,0.00,,,0.00,Wunderground v.1.15,2013-10-13 08:30:00,
2013-10-13 04:35:00,66.0,63.9,30.01,NNE,22,3.0,4.0,93,0.00,,,0.00,Wunderground v.1.15,2013-10-13 08:35:00,
2013-10-13 04:40:00,66.0,63.9,30.01,NNW,341,3.0,3.0,93,0.00,,,0.00,Wunderground v.1.15,2013-10-13 08:40:00,
2013-10-13 04:50:00,66.0,63.9,30.01,North,354,3.0,4.0,93,0.00,,,0.00,Wunderground v.1.15,2013-10-13 08:50:00,
2013-10-13 04:55:00,66.0,63.9,30.01,NE,37,3.0,5.0,93,0.00,,,0.00,Wunderground v.1.15,2013-10-13 08:55:00,
2013-10-13 05:00:00,66.1,64.3,30.01,NNE,15,4.0,4.0,94,0.00,,,0.00,Wunderground v.1.15,2013-10-13 09:00:00,
2013-10-13 05:10:00,66.1,64.3,30.02,NNE,30,4.0,4.0,94,0.00,,,0.00,Wunderground v.1.15,2013-10-13 09:10:00,
2013-10-13 05:15:00,66.2,64.4,30.02,North,11,4.0,4.0,94,0.00,,,0.00,Wunderground v.1.15,2013-10-13 09:15:00,
2013-10-13 05:20:00,66.2,64.4,30.02,NW,311,3.0,3.0,94,0.00,,,0.00,Wunderground v.1.15,2013-10-13 09:20:00,
2013-10-13 05:25:00,66.2,64.4,30.02,North,354,3.0,4.0,94,0.00,,,0.00,Wunderground v.1.15,2013-10-13 09:25:00,
2013-10-13 05:30:00,66.2,64.4,30.02,NNE,12,3.0,3.0,94,0.00,,,0.00,Wunderground v.1.15,2013-10-13 09:30:00,
2013-10-13 05:35:00,66.2,64.4,30.03,North,4,3.0,3.0,94,0.00,,,0.00,Wunderground v.1.15,2013-10-13 09:35:00,
2013-10-13 05:40:00,66.2,64.4,30.03,North,5,2.0,2.0,94,0.00,,,0.00,Wunderground v.1.15,2013-10-13 09:40:00,
2013-10-13 05:45:00,66.2,64.4,30.03,NNW,341,2.0,2.0,94,0.00,,,0.00,Wunderground v.1.15,2013-10-13 09:45:00,
2013-10-13 05:55:00,66.2,64.4,30.03,NNE,15,3.0,3.0,94,0.00,,,0.00,Wunderground v.1.15,2013-10-13 09:55:00,
2013-10-13 06:00:00,66.3,64.5,30.03,North,4,3.0,3.0,94,0.00,,,0.00,Wunderground v.1.15,2013-10-13 10:00:00,
2013-10-13 06:10:00,66.3,64.5,30.03,North,8,3.0,3.0,94,0.00,,,0.00,Wunderground v.1.15,2013-10-13 10:10:00,
2013-10-13 06:20:00,66.2,64.4,30.03,North,357,2.0,4.0,94,0.00,,,0.00,Wunderground v.1.15,2013-10-13 10:20:00,
2013-10-13 06:30:00,66.2,64.4,30.04,NNE,15,2.0,2.0,94,0.00,,,0.00,Wunderground v.1.15,2013-10-13 10:30:00,
2013-10-13 06:40:00,66.2,64.4,30.04,NE,46,2.0,2.0,94,0.00,,,0.00,Wunderground v.1.15,2013-10-13 10:40:00,
2013-10-13 06:50:00,66.2,64.4,30.04,North,350,2.0,2.0,94,0.00,,,0.00,Wunderground v.1.15,2013-10-13 10:50:00,
2013-10-13 07:00:00,66.2,64.4,30.04,North,5,2.0,2.0,94,0.00,,,0.00,Wunderground v.1.15,2013-10-13 11:00:00,
2013-10-13 07:10:00,66.2,64.4,30.04,North,351,2.0,2.0,94,0.00,,,0.00,Wunderground v.1.15,2013-10-13 11:10:00,
2013-10-13 07:15:00,66.2,64.4,30.04,NNW,341,2.0,3.0,94,0.00,,,0.00,Wunderground v.1.15,2013-10-13 11:15:00,
2013-10-13 07:25:00,66.3,64.5,30.05,NNW,337,2.0,2.0,94,0.00,,,0.00,Wunderground v.1.15,2013-10-13 11:25:00,
2013-10-13 07:30:00,66.3,64.5,30.05,NE,36,3.0,3.0,94,0.00,,,0.00,Wunderground v.1.15,2013-10-13 11:30:00,
2013-10-13 07:35:00,66.3,64.5,30.05,NNE,26,3.0,3.0,94,0.00,,,0.00,Wunderground v.1.15,2013-10-13 11:35:00,
2013-10-13 07:40:00,66.3,64.5,30.05,NNE,23,3.0,4.0,94,0.00,,,0.00,Wunderground v.1.15,2013-10-13 11:40:00,
2013-10-13 07:45:00,66.2,64.4,30.05,NNE,20,4.0,4.0,94,0.00,,,0.00,Wunderground v.1.15,2013-10-13 11:45:00,
2013-10-13 07:50:00,66.3,64.5,30.05,NNW,340,4.0,7.0,94,0.00,,,0.00,Wunderground v.1.15,2013-10-13 11:50:00,
2013-10-13 07:55:00,66.3,64.5,30.05,NE,50,4.0,7.0,94,0.00,,,0.00,Wunderground v.1.15,2013-10-13 11:55:00,
2013-10-13 08:00:00,66.2,64.4,30.06,North,11,4.0,4.0,94,0.00,,,0.00,Wunderground v.1.15,2013-10-13 12:00:00,
2013-10-13 08:10:00,66.2,64.1,30.06,NE,37,4.0,4.0,93,0.00,,,0.00,Wunderground v.1.15,2013-10-13 12:10:00,
2013-10-13 08:15:00,66.2,64.1,30.06,ENE,57,3.0,4.0,93,0.00,,,0.00,Wunderground v.1.15,2013-10-13 12:15:00,
2013-10-13 08:20:00,66.2,64.1,30.06,NE,47,3.0,3.0,93,0.00,,,0.00,Wunderground v.1.15,2013-10-13 12:20:00,
2013-10-13 08:30:00,66.2,64.1,30.06,NE,47,4.0,4.0,93,0.00,,,0.00,Wunderground v.1.15,2013-10-13 12:30:00,
2013-10-13 08:35:00,66.2,64.1,30.06,North,11,4.0,4.0,93,0.00,,,0.00,Wunderground v.1.15,2013-10-13 12:35:00,
2013-10-13 08:40:00,66.3,64.2,30.06,NNW,336,4.0,4.0,93,0.00,,,0.00,Wunderground v.1.15,2013-10-13 12:40:00,
2013-10-13 08:45:00,66.4,64.3,30.07,NNE,20,4.0,4.0,93,0.00,,,0.00,Wunderground v.1.15,2013-10-13 12:45:00,
2013-10-13 08:50:00,66.4,64.3,30.07,NNE,30,5.0,5.0,93,0.00,,,0.00,Wunderground v.1.15,2013-10-13 12:50:00,
2013-10-13 08:55:00,66.5,64.4,30.07,NE,44,5.0,5.0,93,0.00,,,0.00,Wunderground v.1.15,2013-10-13 12:55:00,
2013-10-13 09:00:00,66.7,64.6,30.07,NNE,27,4.0,6.0,93,0.00,,,0.00,Wunderground v.1.15,2013-10-13 13:00:00,
2013-10-13 09:10:00,66.8,64.4,30.08,NE,39,5.0,5.0,92,0.00,,,0.00,Wunderground v.1.15,2013-10-13 13:10:00,
2013-10-13 09:20:00,67.2,64.5,30.08,NE,42,4.0,5.0,91,0.00,,,0.00,Wunderground v.1.15,2013-10-13 13:20:00,
2013-10-13 09:30:00,67.6,64.9,30.08,North,11,4.0,4.0,91,0.00,,,0.00,Wunderground v.1.15,2013-10-13 13:30:00,
2013-10-13 09:35:00,67.7,65.0,30.08,ENE,68,5.0,5.0,91,0.00,,,0.00,Wunderground v.1.15,2013-10-13 13:35:00,
2013-10-13 09:40:00,67.6,64.6,30.08,ENE,69,5.0,5.0,90,0.00,,,0.00,Wunderground v.1.15,2013-10-13 13:40:00,
2013-10-13 09:45:00,67.9,64.9,30.08,NNW,340,6.0,6.0,90,0.00,,,0.00,Wunderground v.1.15,2013-10-13 13:45:00,
2013-10-13 09:50:00,68.2,65.2,30.08,NNE,18,6.0,8.0,90,0.00,,,0.00,Wunderground v.1.15,2013-10-13 13:50:00,
2013-10-13 09:55:00,68.5,65.4,30.08,NNE,13,6.0,10.0,90,0.00,,,0.00,Wunderground v.1.15,2013-10-13 13:55:00,
2013-10-13 10:00:00,68.8,65.4,30.08,NE,51,6.0,6.0,89,0.00,,,0.00,Wunderground v.1.15,2013-10-13 14:00:00,
2013-10-13 10:10:00,68.8,65.4,30.09,NNW,345,6.0,6.0,89,0.00,,,0.00,Wunderground v.1.15,2013-10-13 14:10:00,
2013-10-13 10:15:00,68.8,65.4,30.08,NNE,32,6.0,8.0,89,0.00,,,0.00,Wunderground v.1.15,2013-10-13 14:15:00,
2013-10-13 10:20:00,68.9,65.5,30.08,North,9,6.0,6.0,89,0.00,,,0.00,Wunderground v.1.15,2013-10-13 14:20:00,
2013-10-13 10:30:00,69.3,65.9,30.08,NNE,30,5.0,6.0,89,0.00,,,0.00,Wunderground v.1.15,2013-10-13 14:30:00,
2013-10-13 10:35:00,69.1,65.7,30.08,NE,50,6.0,9.0,89,0.00,,,0.00,Wunderground v.1.15,2013-10-13 14:35:00,
2013-10-13 10:40:00,68.9,65.5,30.08,North,1,7.0,7.0,89,0.00,,,0.00,Wunderground v.1.15,2013-10-13 14:40:00,
2013-10-13 10:45:00,69.2,66.1,30.08,North,356,7.0,9.0,90,0.00,,,0.00,Wunderground v.1.15,2013-10-13 14:45:00,
2013-10-13 10:50:00,69.3,65.9,30.08,North,11,8.0,8.0,89,0.00,,,0.00,Wunderground v.1.15,2013-10-13 14:50:00,
2013-10-13 10:55:00,69.4,66.0,30.08,NE,40,9.0,9.0,89,0.00,,,0.00,Wunderground v.1.15,2013-10-13 14:55:00,
2013-10-13 11:00:00,69.5,65.8,30.08,North,356,9.0,10.0,88,0.00,,,0.00,Wunderground v.1.15,2013-10-13 15:00:00,
2013-10-13 11:10:00,69.9,66.2,30.08,NNE,30,8.0,10.0,88,0.00,,,0.00,Wunderground v.1.15,2013-10-13 15:10:00,
2013-10-13 11:15:00,70.1,66.4,30.09,NNE,16,7.0,10.0,88,0.00,,,0.00,Wunderground v.1.15,2013-10-13 15:15:00,
2013-10-13 11:20:00,70.1,66.0,30.09,NNE,32,7.0,8.0,87,0.00,,,0.00,Wunderground v.1.15,2013-10-13 15:20:00,
2013-10-13 11:30:00,70.3,66.6,30.09,NE,56,7.0,9.0,88,0.00,,,0.00,Wunderground v.1.15,2013-10-13 15:30:00,
2013-10-13 11:35:00,70.4,66.3,30.09,NE,39,8.0,12.0,87,0.00,,,0.00,Wunderground v.1.15,2013-10-13 15:35:00,
2013-10-13 11:40:00,70.2,66.1,30.09,NNE,18,9.0,9.0,87,0.00,,,0.00,Wunderground v.1.15,2013-10-13 15:40:00,
2013-10-13 11:45:00,70.1,66.0,30.09,NE,44,9.0,9.0,87,0.00,,,0.00,Wunderground v.1.15,2013-10-13 15:45:00,
2013-10-13 11:50:00,70.1,66.0,30.09,NE,37,8.0,8.0,87,0.00,,,0.00,Wunderground v.1.15,2013-10-13 15:50:00,
2013-10-13 11:55:00,70.1,66.0,30.09,North,356,8.0,8.0,87,0.00,,,0.00,Wunderground v.1.15,2013-10-13 15:55:00,
2013-10-13 12:00:00,70.1,66.0,30.09,North,354,8.0,9.0,87,0.00,,,0.00,Wunderground v.1.15,2013-10-13 16:00:00,
2013-10-13 12:10:00,70.3,66.2,30.09,North,8,9.0,9.0,87,0.00,,,0.00,Wunderground v.1.15,2013-10-13 16:10:00,
2013-10-13 12:15:00,70.5,66.4,30.09,NE,47,9.0,11.0,87,0.00,,,0.00,Wunderground v.1.15,2013-10-13 16:15:00,
2013-10-13 12:25:00,70.7,66.6,30.08,NE,36,9.0,12.0,87,0.00,,,0.00,Wunderground v.1.15,2013-10-13 16:25:00,
2013-10-13 12:35:00,70.7,66.3,30.09,NNE,22,9.0,11.0,86,0.00,,,0.00,Wunderground v.1.15,2013-10-13 16:35:00,
2013-10-13 12:45:00,70.5,66.4,30.08,NNE,23,8.0,10.0,87,0.00,,,0.00,Wunderground v.1.15,2013-10-13 16:45:00,
2013-10-13 12:50:00,70.5,66.4,30.08,North,354,8.0,13.0,87,0.00,,,0.00,Wunderground v.1.15,2013-10-13 16:50:00,
2013-10-13 12:55:00,70.7,66.6,30.08,NE,51,7.0,13.0,87,0.00,,,0.00,Wunderground v.1.15,2013-10-13 16:55:00,
2013-10-13 13:00:00,70.9,66.5,30.08,NE,41,7.0,7.0,86,0.00,,,0.00,Wunderground v.1.15,2013-10-13 17:00:00,
2013-10-13 13:10:00,71.6,67.2,30.07,North,350,8.0,8.0,86,0.00,,,0.00,Wunderground v.1.15,2013-10-13 17:10:00,
2013-10-13 13:15:00,72.0,67.2,30.07,ENE,64,9.0,9.0,85,0.00,,,0.00,Wunderground v.1.15,2013-10-13 17:15:00,
2013-10-13 13:25:00,71.8,67.0,30.06,NNE,18,8.0,8.0,85,0.00,,,0.00,Wunderground v.1.15,2013-10-13 17:25:00,
2013-10-13 13:35:00,72.4,67.3,30.06,North,7,6.0,7.0,84,0.00,,,0.00,Wunderground v.1.15,2013-10-13 17:35:00,
2013-10-13 13:45:00,72.8,67.7,30.06,ESE,107,7.0,10.0,84,0.00,,,0.00,Wunderground v.1.15,2013-10-13 17:45:00,
2013-10-13 13:50:00,73.3,67.8,30.05,NNE,17,6.0,7.0,83,0.00,,,0.00,Wunderground v.1.15,2013-10-13 17:50:00,
2013-10-13 13:55:00,73.3,67.8,30.05,NNE,15,7.0,7.0,83,0.00,,,0.00,Wunderground v.1.15,2013-10-13 17:55:00,
2013-10-13 14:00:00,73.3,67.8,30.05,NE,40,8.0,8.0,83,0.00,,,0.00,Wunderground v.1.15,2013-10-13 18:00:00,
2013-10-13 14:10:00,73.8,68.0,30.04,East,92,8.0,8.0,82,0.00,,,0.00,Wunderground v.1.15,2013-10-13 18:10:00,
2013-10-13 14:15:00,74.4,68.2,30.04,NE,49,7.0,8.0,81,0.00,,,0.00,Wunderground v.1.15,2013-10-13 18:15:00,
2013-10-13 14:20:00,74.0,68.2,30.04,NNE,32,8.0,8.0,82,0.00,,,0.00,Wunderground v.1.15,2013-10-13 18:20:00,
2013-10-13 14:25:00,74.1,68.3,30.04,NE,34,9.0,9.0,82,0.00,,,0.00,Wunderground v.1.15,2013-10-13 18:25:00,
2013-10-13 14:30:00,74.6,68.4,30.04,NE,41,8.0,11.0,81,0.00,,,0.00,Wunderground v.1.15,2013-10-13 18:30:00,
2013-10-13 14:35:00,74.2,68.3,30.04,NNE,20,9.0,11.0,82,0.00,,,0.00,Wunderground v.1.15,2013-10-13 18:35:00,
2013-10-13 14:45:00,74.7,68.1,30.04,NE,41,9.0,11.0,80,0.00,,,0.00,Wunderground v.1.15,2013-10-13 18:45:00,
2013-10-13 14:50:00,75.1,68.1,30.04,ENE,64,8.0,8.0,79,0.00,,,0.00,Wunderground v.1.15,2013-10-13 18:50:00,
2013-10-13 14:55:00,75.5,68.9,30.03,NNE,13,7.0,8.0,80,0.00,,,0.00,Wunderground v.1.15,2013-10-13 18:55:00,
2013-10-13 15:00:00,75.5,68.5,30.03,East,84,7.0,7.0,79,0.00,,,0.00,Wunderground v.1.15,2013-10-13 19:00:00,
2013-10-13 15:10:00,75.2,68.2,30.03,NNW,342,8.0,11.0,79,0.00,,,0.00,Wunderground v.1.15,2013-10-13 19:10:00,
2013-10-13 15:20:00,75.0,68.4,30.03,North,352,8.0,8.0,80,0.00,,,0.00,Wunderground v.1.15,2013-10-13 19:20:00,
2013-10-13 15:30:00,75.3,68.7,30.02,ENE,64,8.0,8.0,80,0.00,,,0.00,Wunderground v.1.15,2013-10-13 19:30:00,
2013-10-13 15:40:00,75.5,68.5,30.03,NNE,27,8.0,10.0,79,0.00,,,0.00,Wunderground v.1.15,2013-10-13 19:40:00,
2013-10-13 15:45:00,75.6,69.0,30.02,NE,36,8.0,10.0,80,0.00,,,0.00,Wunderground v.1.15,2013-10-13 19:45:00,
2013-10-13 15:50:00,75.8,69.2,30.03,NE,34,8.0,9.0,80,0.00,,,0.00,Wunderground v.1.15,2013-10-13 19:50:00,
2013-10-13 15:55:00,75.4,68.8,30.02,NNE,30,9.0,9.0,80,0.00,,,0.00,Wunderground v.1.15,2013-10-13 19:55:00,
2013-10-13 16:00:00,75.0,68.4,30.03,NNE,27,9.0,10.0,80,0.00,,,0.00,Wunderground v.1.15,2013-10-13 20:00:00,
2013-10-13 16:10:00,74.9,68.7,30.02,NNE,30,7.0,7.0,81,0.00,,,0.00,Wunderground v.1.15,2013-10-13 20:10:00,
2013-10-13 16:20:00,74.8,68.6,30.02,NNE,20,7.0,7.0,81,0.00,,,0.00,Wunderground v.1.15,2013-10-13 20:20:00,
2013-10-13 16:25:00,74.8,68.6,30.02,North,11,6.0,8.0,81,0.00,,,0.00,Wunderground v.1.15,2013-10-13 20:25:00,
2013-10-13 16:30:00,74.7,68.5,30.02,NE,48,7.0,7.0,81,0.00,,,0.00,Wunderground v.1.15,2013-10-13 20:30:00,
2013-10-13 16:35:00,74.7,68.5,30.02,NNE,27,7.0,7.0,81,0.00,,,0.00,Wunderground v.1.15,2013-10-13 20:35:00,
2013-10-13 16:40:00,74.6,68.7,30.02,NNE,25,7.0,7.0,82,0.00,,,0.00,Wunderground v.1.15,2013-10-13 20:40:00,
2013-10-13 16:50:00,74.4,68.5,30.02,NE,38,7.0,7.0,82,0.00,,,0.00,Wunderground v.1.15,2013-10-13 20:50:00,
2013-10-13 16:55:00,74.4,68.5,30.02,North,1,6.0,8.0,82,0.00,,,0.00,Wunderground v.1.15,2013-10-13 20:55:00,
2013-10-13 17:00:00,74.4,68.5,30.02,NNW,345,7.0,7.0,82,0.00,,,0.00,Wunderground v.1.15,2013-10-13 21:00:00,
2013-10-13 17:10:00,74.3,68.4,30.02,North,8,6.0,6.0,82,0.00,,,0.00,Wunderground v.1.15,2013-10-13 21:10:00,
2013-10-13 17:20:00,74.7,69.2,30.02,NNE,28,5.0,5.0,83,0.00,,,0.00,Wunderground v.1.15,2013-10-13 21:20:00,
2013-10-13 17:30:00,74.8,68.9,30.02,NNE,22,6.0,8.0,82,0.00,,,0.00,Wunderground v.1.15,2013-10-13 21:30:00,
2013-10-13 17:40:00,74.5,68.6,30.03,NNE,30,8.0,9.0,82,0.00,,,0.00,Wunderground v.1.15,2013-10-13 21:40:00,
2013-10-13 17:45:00,74.6,69.1,30.03,NE,43,8.0,9.0,83,0.00,,,0.00,Wunderground v.1.15,2013-10-13 21:45:00,
2013-10-13 17:50:00,74.7,69.2,30.03,North,7,7.0,7.0,83,0.00,,,0.00,Wunderground v.1.15,2013-10-13 21:50:00,
2013-10-13 17:55:00,74.5,69.0,30.03,NNE,15,7.0,10.0,83,0.00,,,0.00,Wunderground v.1.15,2013-10-13 21:55:00,
2013-10-13 18:00:00,74.1,69.0,30.03,NNE,22,7.0,8.0,84,0.00,,,0.00,Wunderground v.1.15,2013-10-13 22:00:00,
2013-10-13 18:10:00,73.7,68.6,30.03,NNE,20,7.0,7.0,84,0.00,,,0.00,Wunderground v.1.15,2013-10-13 22:10:00,
2013-10-13 18:20:00,73.1,68.3,30.04,North,11,7.0,7.0,85,0.00,,,0.00,Wunderground v.1.15,2013-10-13 22:20:00,
2013-10-13 18:25:00,72.8,68.4,30.04,NNE,18,6.0,7.0,86,0.00,,,0.00,Wunderground v.1.15,2013-10-13 22:25:00,
2013-10-13 18:30:00,72.6,68.2,30.04,North,4,6.0,9.0,86,0.00,,,0.00,Wunderground v.1.15,2013-10-13 22:30:00,
2013-10-13 18:35:00,72.4,68.0,30.03,NNE,32,7.0,9.0,86,0.00,,,0.00,Wunderground v.1.15,2013-10-13 22:35:00,
2013-10-13 18:40:00,72.3,67.9,30.04,NE,44,8.0,8.0,86,0.00,,,0.00,Wunderground v.1.15,2013-10-13 22:40:00,
2013-10-13 18:45:00,72.2,67.8,30.04,NNE,32,9.0,12.0,86,0.00,,,0.00,Wunderground v.1.15,2013-10-13 22:45:00,
2013-10-13 18:50:00,72.0,67.9,30.04,NNE,27,9.0,9.0,87,0.00,,,0.00,Wunderground v.1.15,2013-10-13 22:50:00,
2013-10-13 18:55:00,71.8,67.7,30.04,NNW,341,8.0,9.0,87,0.00,,,0.00,Wunderground v.1.15,2013-10-13 22:55:00,
2013-10-13 19:00:00,71.6,67.5,30.04,NNE,27,7.0,7.0,87,0.00,,,0.00,Wunderground v.1.15,2013-10-13 23:00:00,
2013-10-13 19:10:00,71.3,67.2,30.04,NNE,17,7.0,7.0,87,0.00,,,0.00,Wunderground v.1.15,2013-10-13 23:10:00,
2013-10-13 19:20:00,71.0,67.3,30.05,NE,41,7.0,9.0,88,0.00,,,0.00,Wunderground v.1.15,2013-10-13 23:20:00,
2013-10-13 19:25:00,70.9,67.2,30.05,NE,46,8.0,9.0,88,0.00,,,0.00,Wunderground v.1.15,2013-10-13 23:25:00,
2013-10-13 19:30:00,70.7,67.0,30.05,North,5,7.0,7.0,88,0.00,,,0.00,Wunderground v.1.15,2013-10-13 23:30:00,
2013-10-13 19:35:00,70.6,66.9,30.05,NNE,33,7.0,7.0,88,0.00,,,0.00,Wunderground v.1.15,2013-10-13 23:35:00,
2013-10-13 19:40:00,70.4,66.7,30.05,North,356,6.0,6.0,88,0.00,,,0.00,Wunderground v.1.15,2013-10-13 23:40:00,
2013-10-13 19:45:00,70.2,66.8,30.05,NNE,25,6.0,7.0,89,0.00,,,0.00,Wunderground v.1.15,2013-10-13 23:45:00,
2013-10-13 19:55:00,69.9,66.5,30.05,NNE,22,6.0,10.0,89,0.00,,,0.00,Wunderground v.1.15,2013-10-13 23:55:00,
2013-10-13 20:00:00,69.8,66.4,30.06,NNW,346,6.0,6.0,89,0.00,,,0.00,Wunderground v.1.15,2013-10-14 00:00:00,
2013-10-13 20:10:00,69.7,66.3,30.06,NE,40,6.0,8.0,89,0.00,,,0.00,Wunderground v.1.15,2013-10-14 00:10:00,
2013-10-13 20:15:00,69.6,66.2,30.06,NNE,19,6.0,8.0,89,0.00,,,0.00,Wunderground v.1.15,2013-10-14 00:15:00,
2013-10-13 20:25:00,69.6,66.2,30.06,NNW,330,6.0,6.0,89,0.00,,,0.00,Wunderground v.1.15,2013-10-14 00:25:00,
2013-10-13 20:30:00,69.6,66.2,30.06,NE,39,5.0,7.0,89,0.00,,,0.00,Wunderground v.1.15,2013-10-14 00:30:00,
2013-10-13 20:35:00,69.6,66.2,30.06,NNE,15,5.0,7.0,89,0.00,,,0.00,Wunderground v.1.15,2013-10-14 00:35:00,
2013-10-13 20:40:00,69.5,66.1,30.06,North,8,5.0,5.0,89,0.00,,,0.00,Wunderground v.1.15,2013-10-14 00:40:00,
2013-10-13 20:45:00,69.4,66.0,30.06,North,7,5.0,6.0,89,0.00,,,0.00,Wunderground v.1.15,2013-10-14 00:45:00,
2013-10-13 20:50:00,69.4,66.0,30.06,NNE,19,5.0,5.0,89,0.00,,,0.00,Wunderground v.1.15,2013-10-14 00:50:00,
2013-10-13 21:00:00,69.3,66.2,30.07,NNE,30,6.0,9.0,90,0.00,,,0.00,Wunderground v.1.15,2013-10-14 01:00:00,
2013-10-13 21:10:00,69.3,66.2,30.07,North,6,7.0,9.0,90,0.00,,,0.00,Wunderground v.1.15,2013-10-14 01:10:00,
2013-10-13 21:20:00,69.4,66.3,30.07,North,11,8.0,8.0,90,0.00,,,0.00,Wunderground v.1.15,2013-10-14 01:20:00,
2013-10-13 21:30:00,69.3,66.2,30.06,NNE,30,8.0,11.0,90,0.00,,,0.00,Wunderground v.1.15,2013-10-14 01:30:00,
2013-10-13 21:40:00,69.4,66.3,30.07,North,4,8.0,11.0,90,0.00,,,0.00,Wunderground v.1.15,2013-10-14 01:40:00,
2013-10-13 21:45:00,69.4,66.3,30.07,North,4,8.0,11.0,90,0.00,,,0.00,Wunderground v.1.15,2013-10-14 01:45:00,
2013-10-13 21:50:00,69.5,66.4,30.07,NNE,18,9.0,9.0,90,0.00,,,0.00,Wunderground v.1.15,2013-10-14 01:50:00,
2013-10-13 21:55:00,69.6,66.5,30.07,NNE,27,8.0,9.0,90,0.00,,,0.00,Wunderground v.1.15,2013-10-14 01:55:00,
2013-10-13 22:00:00,69.6,66.5,30.07,North,1,7.0,7.0,90,0.00,,,0.00,Wunderground v.1.15,2013-10-14 02:00:00,
2013-10-13 22:10:00,69.6,66.5,30.07,North,360,7.0,7.0,90,0.00,,,0.00,Wunderground v.1.15,2013-10-14 02:10:00,
2013-10-13 22:20:00,69.6,66.5,30.07,NNE,32,7.0,8.0,90,0.00,,,0.00,Wunderground v.1.15,2013-10-14 02:20:00,
2013-10-13 22:30:00,69.4,66.3,30.07,NNE,24,7.0,8.0,90,0.00,,,0.00,Wunderground v.1.15,2013-10-14 02:30:00,
2013-10-13 22:40:00,69.4,66.3,30.07,North,6,7.0,7.0,90,0.00,,,0.00,Wunderground v.1.15,2013-10-14 02:40:00,
2013-10-13 22:45:00,69.3,66.6,30.07,NE,51,6.0,7.0,91,0.00,,,0.00,Wunderground v.1.15,2013-10-14 02:45:00,
2013-10-13 22:55:00,69.3,66.2,30.07,NNE,25,6.0,6.0,90,0.00,,,0.00,Wunderground v.1.15,2013-10-14 02:55:00,
2013-10-13 23:00:00,69.3,66.2,30.07,NE,37,6.0,6.0,90,0.00,,,0.00,Wunderground v.1.15,2013-10-14 03:00:00,
2013-10-13 23:10:00,69.3,66.2,30.07,NE,36,7.0,7.0,90,0.00,,,0.00,Wunderground v.1.15,2013-10-14 03:10:00,
2013-10-13 23:15:00,69.3,66.2,30.06,NE,39,7.0,7.0,90,0.00,,,0.00,Wunderground v.1.15,2013-10-14 03:15:00,
2013-10-13 23:20:00,69.2,66.1,30.06,ENE,70,6.0,6.0,90,0.00,,,0.00,Wunderground v.1.15,2013-10-14 03:20:00,
2013-10-13 23:25:00,69.2,66.1,30.06,ENE,61,6.0,11.0,90,0.00,,,0.00,Wunderground v.1.15,2013-10-14 03:25:00,
2013-10-13 23:35:00,69.1,66.0,30.06,NNE,17,6.0,6.0,90,0.00,,,0.00,Wunderground v.1.15,2013-10-14 03:35:00,
2013-10-13 23:40:00,69.0,65.9,30.07,NNE,32,6.0,7.0,90,0.00,,,0.00,Wunderground v.1.15,2013-10-14 03:40:00,
2013-10-13 23:45:00,69.1,66.0,30.06,NNE,23,5.0,10.0,90,0.00,,,0.00,Wunderground v.1.15,2013-10-14 03:45:00,
2013-10-13 23:50:00,69.0,65.9,30.07,NNE,25,5.0,8.0,90,0.00,,,0.00,Wunderground v.1.15,2013-10-14 03:50:00,
2013-10-13 23:55:00,69.1,66.0,30.07,East,91,5.0,8.0,90,0.00,,,0.00,Wunderground v.1.15,2013-10-14 03:55:00,